Weather History for KE38 - October, 2012

Change the Weather History Date:

Friday, October 26, 2012

  Actual Average (KMRF) Record (KMRF)
Temperature  
Mean Temperature 44 °F -  
Max Temperature 49 °F 69 °F 82 °F (2011)
Min Temperature 40 °F 41 °F 26 °F (1997)
Degree Days  
Heating Degree Days 20    
Moisture  
Dew Point 34 °F    
Average Humidity 66    
Maximum Humidity 85    
Minimum Humidity 53    
Precipitation  
Precipitation 0.00 in - - ()
Sea Level Pressure  
Sea Level Pressure 30.32 in    
Wind  
Wind Speed 8 mph (NE)    
Max Wind Speed 15 mph    
Max Gust Speed 20 mph    
Visibility 10 miles    
Events      
Averages and records for this station are not official NWS values.
T = Trace of Precipitation, MM = Missing Value Source: NWS Daily Summary

Daily Weather History Graph

Daily Weather History Graph

Search for Another Location

Airport or City:

Trip Planner

Search our weather history database for the weather conditions in past years. The results will help you decide how hot, cold, wet, or windy it might be!

Date:

Astronomy

Oct. 26, 2012 Rise Set
Actual Time 8:04 AM CDT 7:11 PM CDT
Civil Twilight 7:40 AM CDT 7:36 PM CDT
Nautical Twilight 7:12 AM CDT 8:04 PM CDT
Astronomical Twilight 6:44 AM CDT 8:32 PM CDT
Moon 5:20 PM CDT (10/26) 5:13 AM CDT (10/26)
Length of Visible Light 11h 56m
Length of Day
11h 06m
Waxing Gibbous, 91% of the Moon is Illuminated
Oct 26
Waxing Gibbous
Oct 29
Full
Nov 6
Last Quarter
Nov 13
New
Nov 20
First Quarter

Hourly Weather History & Observations

Time (CDT) Temp. Windchill Dew Point Humidity Pressure Visibility Wind Dir Wind Speed Gust Speed Precip Events Conditions
12:15 AM 49.8 °F - 42.8 °F 77% 30.20 in 10.0 mi NNW 4.6 mph - N/A   Clear
12:35 AM 49.1 °F - 43.3 °F 81% 30.19 in 10.0 mi North 3.5 mph - N/A   Clear
1:15 AM 47.8 °F - 43.5 °F 85% 30.20 in 10.0 mi NNE 5.8 mph - N/A   Clear
1:35 AM 48.0 °F - 43.3 °F 84% 30.20 in 10.0 mi NNE 4.6 mph - N/A   Clear
1:55 AM 48.0 °F - 42.6 °F 82% 30.21 in 10.0 mi NE 5.8 mph - N/A   Clear
2:35 AM 47.1 °F - 40.3 °F 77% 30.23 in 10.0 mi NE 5.8 mph - N/A   Clear
2:55 AM 46.6 °F - 39.7 °F 77% 30.23 in 10.0 mi NE 5.8 mph - N/A   Clear
3:15 AM 45.7 °F 41.5 °F 38.8 °F 77% 30.23 in 10.0 mi NE 8.1 mph - N/A   Scattered Clouds
3:35 AM 45.1 °F 42.0 °F 37.6 °F 75% 30.24 in 10.0 mi NE 5.8 mph - N/A   Scattered Clouds
3:55 AM 44.4 °F 42.0 °F 36.9 °F 75% 30.23 in 10.0 mi NE 4.6 mph - N/A   Clear
4:15 AM 42.8 °F 40.1 °F 36.3 °F 78% 30.24 in 10.0 mi NE 4.6 mph - N/A   Clear
4:35 AM 42.1 °F 40.2 °F 36.0 °F 79% 30.24 in 10.0 mi NE 3.5 mph - N/A   Clear
4:55 AM 41.4 °F 38.4 °F 35.4 °F 79% 30.24 in 10.0 mi ENE 4.6 mph - N/A   Clear
5:15 AM 41.0 °F 35.8 °F 35.2 °F 80% 30.25 in 10.0 mi NNE 8.1 mph - N/A   Scattered Clouds
5:35 AM 42.4 °F 37.0 °F 34.9 °F 75% 30.26 in 10.0 mi NE 9.2 mph - N/A   Overcast
5:55 AM 42.8 °F 35.8 °F 34.7 °F 73% 30.27 in 10.0 mi NNE 13.8 mph 17.3 mph N/A   Overcast
6:15 AM 42.4 °F 36.1 °F 34.5 °F 74% 30.28 in 10.0 mi NNE 11.5 mph - N/A   Overcast
6:35 AM 42.1 °F 35.7 °F 34.3 °F 74% 30.28 in 10.0 mi NNE 11.5 mph - N/A   Overcast
7:15 AM 41.2 °F 34.1 °F 33.8 °F 75% 30.30 in 10.0 mi NE 12.7 mph - N/A   Overcast
7:55 AM 40.6 °F 34.3 °F 33.4 °F 75% 30.31 in 10.0 mi NE 10.4 mph - N/A   Overcast
8:55 AM 40.1 °F 33.6 °F 33.1 °F 76% 30.32 in 10.0 mi NE 10.4 mph - N/A   Overcast
9:15 AM 40.3 °F 33.4 °F 33.1 °F 75% 30.34 in 10.0 mi NNE 11.5 mph 16.1 mph N/A   Overcast
9:35 AM 40.5 °F 34.1 °F 32.9 °F 74% 30.35 in 10.0 mi NE 10.4 mph - N/A   Overcast
9:55 AM 40.5 °F 33.2 °F 32.9 °F 74% 30.35 in 10.0 mi NE 12.7 mph - N/A   Overcast
10:15 AM 40.3 °F 33.9 °F 33.1 °F 75% 30.36 in 10.0 mi NE 10.4 mph - N/A   Overcast
10:35 AM 40.6 °F 34.3 °F 33.3 °F 75% 30.36 in 10.0 mi NE 10.4 mph - N/A   Overcast
10:55 AM 41.0 °F 34.3 °F 33.3 °F 74% 30.37 in 10.0 mi NNE 11.5 mph - N/A   Overcast
11:15 AM 40.8 °F 33.7 °F 33.1 °F 74% 30.38 in 10.0 mi NNE 12.7 mph - N/A   Overcast
11:35 AM 41.2 °F 35.0 °F 33.1 °F 73% 30.39 in 10.0 mi NNE 10.4 mph - N/A   Overcast
11:55 AM 41.0 °F 33.9 °F 32.9 °F 73% 30.39 in 10.0 mi NE 12.7 mph - N/A   Overcast
12:15 PM 41.2 °F 35.5 °F 32.7 °F 72% 30.39 in 10.0 mi NNE 9.2 mph 16.1 mph N/A   Overcast
12:35 PM 41.5 °F 35.9 °F 32.7 °F 71% 30.39 in 10.0 mi NNE 9.2 mph - N/A   Overcast
12:55 PM 42.3 °F 36.3 °F 32.5 °F 68% 30.39 in 10.0 mi NNE 10.4 mph - N/A   Overcast
1:15 PM 43.2 °F 37.4 °F 32.9 °F 67% 30.38 in 10.0 mi NNE 10.4 mph - N/A   Overcast
1:35 PM 44.2 °F 38.4 °F 32.9 °F 64% 30.37 in 10.0 mi NE 11.5 mph - N/A   Overcast
1:55 PM 45.0 °F 38.9 °F 32.7 °F 62% 30.37 in 10.0 mi NNE 12.7 mph 16.1 mph N/A   Overcast
2:15 PM 45.7 °F 39.8 °F 32.4 °F 60% 30.35 in 10.0 mi NNE 12.7 mph 18.4 mph N/A   Overcast
2:35 PM 46.0 °F 40.2 °F 32.4 °F 59% 30.34 in 10.0 mi North 12.7 mph 19.6 mph N/A   Overcast
2:55 PM 46.8 °F - 32.4 °F 57% 30.34 in 10.0 mi NE 13.8 mph 19.6 mph N/A   Overcast
3:15 PM 46.6 °F - 32.0 °F 57% 30.34 in 10.0 mi NE 13.8 mph 17.3 mph N/A   Overcast
3:35 PM 46.4 °F 40.4 °F 32.0 °F 57% 30.34 in 10.0 mi NE 13.8 mph - N/A   Overcast
3:55 PM 46.2 °F 40.8 °F 32.0 °F 58% 30.33 in 10.0 mi NE 11.5 mph 18.4 mph N/A   Overcast
4:15 PM 46.9 °F - 32.0 °F 56% 30.32 in 10.0 mi NNE 9.2 mph 16.1 mph N/A   Overcast
4:35 PM 47.3 °F - 32.0 °F 55% 30.32 in 10.0 mi NE 13.8 mph 17.3 mph N/A   Overcast
4:55 PM 47.1 °F - 32.0 °F 56% 30.31 in 10.0 mi NNE 8.1 mph 18.4 mph N/A   Overcast
5:15 PM 47.1 °F - 31.8 °F 55% 30.32 in 10.0 mi NNE 12.7 mph - N/A   Overcast
5:35 PM 46.8 °F - 31.6 °F 56% 30.32 in 10.0 mi NE 15.0 mph 18.4 mph N/A   Overcast
5:55 PM 46.6 °F - 31.6 °F 56% 30.32 in 10.0 mi NNE 11.5 mph - N/A   Overcast
6:15 PM 46.4 °F 41.5 °F 31.5 °F 56% 30.32 in 10.0 mi NNE 10.4 mph 16.1 mph N/A   Overcast
6:35 PM 46.6 °F - 31.5 °F 56% 30.32 in 10.0 mi NNE 10.4 mph - N/A   Overcast
6:55 PM 46.6 °F - 31.3 °F 55% 30.32 in 10.0 mi NNE 11.5 mph - N/A   Overcast
7:15 PM 46.6 °F - 31.1 °F 55% 30.32 in 10.0 mi NE 11.5 mph - N/A   Overcast
7:35 PM 46.6 °F - 31.1 °F 55% 30.34 in 10.0 mi NE 10.4 mph 18.4 mph N/A   Overcast
7:55 PM 46.8 °F - 31.5 °F 55% 30.35 in 10.0 mi NNE 11.5 mph - N/A   Overcast
8:15 PM 46.8 °F - 31.5 °F 55% 30.35 in 10.0 mi NE 11.5 mph - N/A   Overcast
8:35 PM 46.9 °F - 31.3 °F 55% 30.36 in 10.0 mi NE 11.5 mph - N/A   Overcast
8:55 PM 47.1 °F - 31.1 °F 54% 30.36 in 10.0 mi NE 9.2 mph 16.1 mph N/A   Overcast
9:15 PM 46.9 °F - 31.3 °F 55% 30.37 in 10.0 mi NE 10.4 mph - N/A   Overcast
9:35 PM 46.9 °F - 31.3 °F 55% 30.37 in 10.0 mi NE 8.1 mph - N/A   Overcast
9:55 PM 46.8 °F - 31.3 °F 55% 30.37 in 10.0 mi NE 9.2 mph - N/A   Overcast
10:15 PM 46.4 °F 41.9 °F 31.1 °F 55% 30.38 in 10.0 mi NE 9.2 mph - N/A   Overcast
10:35 PM 46.4 °F 42.4 °F 30.9 °F 55% 30.38 in 10.0 mi NE 8.1 mph - N/A   Overcast
10:55 PM 46.4 °F 41.5 °F 30.4 °F 54% 30.38 in 10.0 mi NE 10.4 mph - N/A   Overcast
11:15 PM 46.2 °F 42.2 °F 30.0 °F 53% 30.38 in 10.0 mi NE 8.1 mph - N/A   Overcast
11:35 PM 46.0 °F 40.6 °F 29.8 °F 53% 30.38 in 10.0 mi NE 11.5 mph - N/A   Overcast
11:55 PM 45.9 °F 41.2 °F 29.7 °F 53% 30.37 in 10.0 mi NE 9.2 mph - N/A   Overcast